Regional Weather Roundup
Issued by NWS Upton, NY

Current Version | Previous Version | Graphics & Text | Print | Product List | Glossary Off
Versions: 1 2 3 4 5 6 7 8 9 10 11 12 13 14 15 16 17 18 19 20 21 22 23 24 25 26 27

000
ASUS41 KOKX 221209
RWROKX

Regional Weather Roundup
National Weather Service New York NY
700 AM EST MON JAN 22 2018

Note: "FAIR" indicates few or no clouds below 12,000 feet with no
significant weather and/or obstructions to visibility.

NYZ071-072-176-178-NJZ106-104-221300-
New York City Metro Area

CITY           SKY/WX    TMP DP  RH WIND       PRES   REMARKS
Central Park   CLOUDY    42  36  79 NE3       30.17R
Bronx Bot Gard   N/A     39  34  81 S1        30.15R
Bronx Lehman C   N/A     39  36  87 E5          N/A
LaGuardia Arpt CLOUDY    39  34  82 NE7       30.15S WCI  34
Queens College   N/A     41  37  87 N2          N/A
Kennedy Intl   CLOUDY    40  39  97 S3        30.16S
Breezy Point     N/A     39 N/A N/A S5          N/A
Brooklyn Coll    N/A     43  37  81 S1          N/A
Staten Island    N/A     43  39  87 W1          N/A
Newark/Liberty CLOUDY    42  38  85 N7        30.15R
Teterboro      CLOUDY    41  36  82 N6        30.15R
$$

NYZ177-179-078>081-221300-
Long Island New York

CITY           SKY/WX    TMP DP  RH WIND       PRES   REMARKS
Jones Beach      N/A     39 N/A N/A W2          N/A
Wantagh          N/A     41  37  87 W1          N/A
Matinecock Pt    N/A     34 N/A N/A E7          N/A  WCI  28
Farmingdale    CLOUDY    40  39  97 CALM      30.16R FOG
MacArthur/ISP  CLOUDY    44  42  93 CALM      30.16R
Shirley        CLOUDY    43  42  97 SE5       30.17R
Mt Sinai Harb    N/A    N/A N/A N/A CALM        N/A
Westhampton    CLOUDY    44  40  85 SE7       30.19R
East Hampton   CLOUDY    41  39  91 SE3       30.18R
Southold         N/A     39  37  93 E3          N/A
Montauk          N/A     44  40  85 CALM      30.20R
$$

NYZ052-065-067-221300-
Hudson Valley

CITY           SKY/WX    TMP DP  RH WIND       PRES   REMARKS
White Plains   LGT RAIN  39  36  89 CALM      30.14R
Larchmont Harb   N/A     34 N/A N/A N8          N/A  WCI  27
Croton On Huds   N/A     37 N/A N/A CALM        N/A
Somers           N/A     37  36  93 NW1         N/A
Brewster         N/A     36  36 100 N2          N/A
Newburgh       LGT RAIN  36  36 100 CALM      30.16R FOG
Montgomery     CLOUDY    34  33  96 CALM      30.14R FOG
Otisville        N/A     34  34 100 S1          N/A
Warwick          N/A     36  36 100 CALM        N/A
Suffern          N/A     39  36  87 NE2         N/A
Poughkeepsie   CLOUDY    35  33  92 CALM      30.16R FOG
Albany         DRZL/FOG  33  31  92 N3        30.18R VSB 3/4
$$

NJZ001-105-106-008-010-013-015-019>022-104-221300-
New Jersey

CITY           SKY/WX    TMP DP  RH WIND       PRES   REMARKS
Newark/Liberty CLOUDY    42  38  85 N7        30.15R
Teterboro      CLOUDY    41  36  82 N6        30.15R
Caldwell       CLOUDY    39  38  96 CALM      30.16R
Somerville     CLOUDY    36  36 100 NW3       30.13R
Linden         CLOUDY    42  37  84 CALM      30.16R
Perth Amboy      N/A     39 N/A N/A MISG        N/A
Sussex         CLOUDY    35  35 100 CALM      30.14S FOG
Andover          N/A     35  35 100 CALM      30.14R
Trenton        CLOUDY    43  37  79 CALM      30.14R
Millville      CLOUDY    41  39  93 CALM      30.15R
Atlantic City  CLOUDY    43  39  86 CALM      30.15R
Wrightstown    CLOUDY    41  37  86 CALM      30.12R
Toms River     CLOUDY    41  36  82 CALM      30.16R
Belmar         CLOUDY    42  36  79 S6        30.15S
$$

PAZ047>061-062-071-221300-
Eastern Pennsylvania

CITY           SKY/WX    TMP DP  RH WIND       PRES   REMARKS
Philadelphia   CLOUDY    43  36  76 CALM      30.16R
Allentown      CLOUDY    38  34  85 CALM      30.13S FOG
Scranton       CLOUDY    36  36 100 NE5       30.11R FOG     WCI  32
$$

CTZ002-004>006-009-010-012-RIZ004-006-007-MAZ004-011-015-221300-
Southern New England

 In CT

CITY           SKY/WX    TMP DP  RH WIND       PRES   REMARKS
Bradley Intl   LGT RAIN  35  33  92 N3        30.19R
Hartford       LGT RAIN  36  33  89 NE6       30.19R WCI  31
Danbury        CLOUDY    37  35  92 CALM      30.16R FOG
Wtrbury/Oxford CLOUDY    37  36  96 E3        30.16R FOG
Norwalk Harbor   N/A     36 N/A N/A N5          N/A  WCI  32
Bridgeport     CLOUDY    38  35  89 NE7       30.17R FOG     WCI  33
Meriden        CLOUDY    35  34  96 NW5       30.19R FOG     WCI  31
New Haven      CLOUDY    40  36  86 CALM      30.17R
Chester        CLOUDY    37  36  93 CALM      30.17R FOG
Groton         CLOUDY    39  36  89 NE3       30.20R
Willimantic    LGT RAIN  34  32  92 CALM      30.21R FOG

 In RI

CITY           SKY/WX    TMP DP  RH WIND       PRES   REMARKS
Providence     LGT RAIN  37  36  96 CALM      30.21S FOG
Block Island   LGT RAIN  41  40  96 SE6       30.21R
Westerly       LGT RAIN  36  36 100 N3        30.21R FOG

In MA

CITY           SKY/WX    TMP DP  RH WIND       PRES   REMARKS
Boston         CLOUDY    35  33  92 S3        30.22R
Worcester      LGT RAIN  33  30  88 SE5       30.17R FOG     WCI  29
Westfield      LGT RAIN  33  33 100 CALM      30.19R FOG
Provincetown   CLOUDY    37  32  82 MISG        N/A
Nantucket      CLOUDY    37  37 100 E5        30.23S WCI  33
$$

ANZ330-335-338-340-345-350-353-355-221300-
Coastal Marine Observations


STATION/POSITION TIME  SKY/WX   TEMP    WIND        PRES    VSBY  WAVE
                                AIR SEA DIR/SP/G                  HT/PER
                 (UTC)          (F)     (DEG/KT/KT) (MB)    (MI)  (FT/S)
NY Harb Entrance 1050            42 40  190/ 10/ 10 1020.4          2/ 6
20 S Fire Island 1050            45 41  190/ 12/ 14 1020.9          2/ 6
15 E Barnegat Li 1130               43                N/A           2/ 6
Hudson Canyon    1050            51 49  160/  8/ 10 1021.8          2/ 6
Kings Point      1148            34 34   60/  4/  5 1022.0
Execution Rocks  NOT AVBL
Western LI Sound NOT AVBL
Central LI Sound NOT AVBL
Robbins Reef     1148            42      CALM  /  1 1021.5
$$


>>>>>>>>>>>>>>>>>>>>>>>>>>>> KEY <<<<<<<<<<<<<<<<<<<<<<<<<<<
>                                                          <
>     SKY/WX - Sky Condition/Present Weather               <
>     TMP    - Temperature in Fahrenheit                   <
>     DP     - Dew Point in Fahrenheit                     <
>     RH     - Relative Humidity in Percent                <
>     WIND   - Direction (from) and Speed in MPH           <
>     PRES   - Mean Sea Level Pressure (inches of Hg)      <
>     WCI    - Wind Chill Index                            <
>     VSB    - Visibility in Miles                         <
>     HX     - Heat Index                                  <
>     TC     - Temperature in Celsius                      <
>     VRB    - Varibale Wind Direction                     <
>                                                          <
>>>>>>>>>>>>>>>>>>>>>>>>>>>> KEY <<<<<<<<<<<<<<<<<<<<<<<<<<<




USA.gov is the U.S. government's official web portal to all federal, state and local government web resources and services.